Location: Cardiff
(53.7833°N, 113.6000°W)
Time: 06:18:27
(UTC+00:00)

SO-50 - Pass Details

Date: 14 December 2023
Orbit: 608 x 660 km, 64.6° (Epoch: 02 March)

Event Time Altitude Azimuth Distance (km) Brightness Sun altitude
Exits shadow 13:06:47 21° 353° (N) 1,436 ? -21.7°
Maximum altitude 13:07:21 22° 4° (N) 1,415 ? -21.7°
Drops below altitude 10° 13:10:53 10° 55° (NE) 2,016 ? -21.1°
Sets 13:13:37 0° 71° (ENE) 2,912 ? -20.8°
